Regional Weather Roundup
Issued by NWS Jackson, KY

Home | Current Version | Previous Version | Text Only | Print | Product List | Glossary On
Versions: 1 2 3 4 5 6 7 8 9 10 11 12 13 14 15 16 17 18 19 20 21 22 23 24 25 26 27 28 29 30 31 32 33 34 35 36 37 38 39 40 41 42 43 44 45 46 47 48 49 50
790
ASUS43 KJKL 130710
RWRJKL

EAST KENTUCKY HOURLY WEATHER ROUNDUP
NATIONAL WEATHER SERVICE JACKSON KY
200 AM EST SAT FEB 13 2016

NOTE: "FAIR" INDICATES FEW OR NO CLOUDS BELOW 12,000 FEET WITH
NO SIGNIFICANT WEATHER AND/OR OBSTRUCTIONS TO VISIBILITY.

* THESE REPORTS ARE NOT UNDER NWS QUALITY CONTROL AND MAY NOT
  REPORT WEATHER SUCH AS PRECIPITATION AND FOG.

KYZ079-080-083-085-087-088-110-112-115-119-120-130800
...EASTERN KENTUCKY...

CITY           SKY/WX    TMP DP  RH WIND       PRES   REMARKS
JACKSON        CLOUDY    21   7  54 W9        30.26R WCI  11
LONDON         FLURRIES  23  12  62 N14G23    30.29R WCI  11
SOMERSET*      CLOUDY    23  12  63 NW8       30.35R WCI  14
MONTICELLO*    FLURRIES  25  15  66 NW14G20   30.34S WCI  13
WILLIAMSBURG*  CLOUDY    25  12  58 NW6       30.30R WCI  18
MIDDLESBORO*   FLURRIES  25  18  74 NW9G18    30.29R WCI  16
HARLAN APT*    CLOUDY    25  14  63 W5G21     30.24R WCI  19
HAZARD APT*    FLURRIES  18  12  79 N5G16     30.27R WCI  11
BLACK MTN*       N/A     10  10 100 N2          N/A
BIG SANDY*     CLOUDY    22   6  50 NW12G22   30.24R WCI  11
MOREHEAD APT*  FLURRIES  19  12  73 NW14G20   30.31R WCI   6
$$

KYZ035-036-041-042-044-050-067-078-099-130800
...CENTRAL KENTUCKY...

CITY           SKY/WX    TMP DP  RH WIND       PRES   REMARKS
MT STERLING*   FLURRIES  21  14  73 N9        30.32R WCI  11
DANVILLE*      CLOUDY    23  12  63 N9        30.33R WCI  13
RICHMOND*      CLOUDY    23   9  54 NW7G20    30.30S WCI  15
LEXINGTON      FLURRIES  20  12  71 NW14G21   30.32R WCI   7
FRANKFORT      CLOUDY    21   5  50 NW14G21   30.33S WCI   8
$$

KYZ091>093-OHZ055-061-077-WVZ005-015-034-035-042-130800
...SOUTHERN OHIO/WEST VIRGINIA...

CITY           SKY/WX    TMP DP  RH WIND       PRES   REMARKS
COVINGTON      MOCLDY    18   6  59 N12       30.32R WCI   5
COLUMBUS       MOCLDY    14   4  64 NW14      30.25R WCI  -1
DAYTON         PTCLDY    12   6  77 NW10      30.30R WCI  -1
WILMINGTON     CLEAR     13   5  70 NW13      30.28R WCI  -2
HUNTINGTON     CLOUDY    19   9  65 NW8       30.28R WCI   9
CHARLESTON     CLOUDY    19   6  57 NW12G20   30.24R WCI   7
PINEVILLE*     LGT SNOW  21  14  74 MISG      30.18R
BECKLEY        LGT SNOW  15  10  80 N16G24    30.06R VSB 3/4 WCI  -1
$$

VAZ002-007-008-TNZ017-027-036-066-071-130800
...SOUTHWEST VIRGINIA/EAST TENNESSEE...

CITY           SKY/WX    TMP DP  RH WIND       PRES   REMARKS
BRISTOL        MOCLDY    27  15  61 W13       30.18R WCI  16
KNOXVILLE      CLOUDY    30  18  60 W9        30.27R WCI  22
OAK RIDGE      CLOUDY    31  15  52 VRB5      30.30R WCI  26
CROSSVILLE     CLOUDY    25  16  68 N12G23    30.26R WCI  14
NASHVILLE      PTCLDY    26  12  55 NW10G20   30.42R WCI  16
$$

...KEY TO REMARKS...
VSB - VISIBILITY IN MILES
WCI - WIND CHILL INDEX
HX  - HEAT INDEX

$$




USA.gov is the U.S. government's official web portal to all federal, state and local government web resources and services.